Weather History for KC29 - February, 2013

Change the Weather History Date:

Thursday, February 7, 2013

  Actual Average (KMSN) Record (KMSN)
Temperature  
Mean Temperature 30 °F 21 °F  
Max Temperature 35 °F 29 °F 50 °F (1987)
Min Temperature 24 °F 13 °F -21 °F (1875)
Degree Days  
Heating Degree Days 36 44  
Month to date heating degree days 313  
Since 1 July heating degree days 4626  
Cooling Degree Days 0 0  
Month to date cooling degree days 0  
Year to date cooling degree days 0  
Moisture  
Dew Point 31 °F    
Average Humidity 93    
Maximum Humidity 98    
Minimum Humidity 83    
Precipitation  
Precipitation 0.17 in 0.04 in 0.63 in (1892)
Month to date precipitation 0.30  
Year to date precipitation 1.53  
Snow  
Snow 0.00 in 0.40 in 6.20 in (1892)
Month to date snowfall 2.9  
Since 1 July snowfall 33.4  
Snow Depth -    
Sea Level Pressure  
Sea Level Pressure 29.99 in    
Wind  
Wind Speed 7 mph (ENE)    
Max Wind Speed 20 mph    
Max Gust Speed 26 mph    
Visibility 3 miles    
Events      
T = Trace of Precipitation, MM = Missing Value Source: NWS Daily Summary

Daily Weather History Graph

Daily Weather History Graph

Search for Another Location

Airport or City:

Trip Planner

Search our weather history database for the weather conditions in past years. The results will help you decide how hot, cold, wet, or windy it might be!

Date:

Astronomy

Feb. 07, 2013 Rise Set
Actual Time 7:06 AM CST 5:19 PM CST
Civil Twilight 6:36 AM CST 5:48 PM CST
Nautical Twilight 6:02 AM CST 6:22 PM CST
Astronomical Twilight 5:29 AM CST 6:55 PM CST
Moon 4:48 AM CST (2/7) 2:41 PM CST (2/7)
Length of Visible Light 11h 12m
Length of Day
10h 12m
Waning Crescent, 9% of the Moon is Illuminated
Feb 7
Waning Crescent
Feb 10
New
Feb 17
First Quarter
Feb 25
Full
Mar 4
Last Quarter

Hourly Weather History & Observations

Time (CST) Temp. Windchill Dew Point Humidity Pressure Visibility Wind Dir Wind Speed Gust Speed Precip Events Conditions
12:15 AM 33.4 °F 30.4 °F 29.3 °F 85% 30.05 in 7.0 mi ESE 3.5 mph - N/A   Overcast
12:35 AM 32.9 °F - 29.5 °F 87% 30.05 in 5.0 mi Calm Calm - N/A   Overcast
12:55 AM 32.5 °F - 29.3 °F 88% 30.04 in 5.0 mi Calm Calm - N/A   Mostly Cloudy
1:15 AM 33.4 °F 30.4 °F 30.2 °F 88% 30.04 in 7.0 mi ESE 3.5 mph - N/A   Overcast
1:35 AM 34.2 °F 30.0 °F 30.2 °F 85% 30.04 in 7.0 mi East 4.6 mph - N/A   Overcast
1:55 AM 34.7 °F 30.6 °F 30.7 °F 85% 30.04 in 7.0 mi East 4.6 mph - N/A   Overcast
2:15 AM 35.1 °F 29.3 °F 30.9 °F 85% 30.03 in 7.0 mi ESE 6.9 mph - N/A   Overcast
2:35 AM 34.7 °F 28.1 °F 31.6 °F 89% 30.02 in 7.0 mi SE 8.1 mph - N/A   Overcast
2:55 AM 34.7 °F 26.9 °F 31.5 °F 88% 30.01 in 7.0 mi SE 10.4 mph - N/A   Overcast
3:15 AM 34.9 °F 29.9 °F 32.0 °F 89% 30.01 in 5.0 mi SE 5.8 mph - N/A   Overcast
3:35 AM 34.7 °F 28.1 °F 32.2 °F 91% 30.00 in 5.0 mi SE 8.1 mph - N/A   Overcast
3:55 AM 34.7 °F 29.6 °F 32.5 °F 92% 30.00 in 5.0 mi SE 5.8 mph - N/A   Overcast
4:15 AM 34.7 °F 28.8 °F 32.5 °F 92% 30.00 in 5.0 mi SE 6.9 mph - N/A   Overcast
4:35 AM 34.7 °F 28.8 °F 32.5 °F 92% 30.00 in 5.0 mi SSE 6.9 mph - N/A   Overcast
4:55 AM 34.7 °F 28.8 °F 32.4 °F 91% 29.99 in 5.0 mi SSE 6.9 mph - N/A   Overcast
5:15 AM 34.7 °F 29.6 °F 32.5 °F 92% 29.99 in 5.0 mi SE 5.8 mph - N/A   Overcast
5:35 AM 34.7 °F 30.6 °F 32.5 °F 92% 30.00 in 5.0 mi SE 4.6 mph - N/A   Overcast
5:55 AM 34.3 °F 29.2 °F 32.5 °F 93% 29.99 in 4.0 mi SE 5.8 mph - N/A   Overcast
6:15 AM 34.2 °F 28.2 °F 32.9 °F 95% 29.99 in 4.0 mi SE 6.9 mph - N/A   Overcast
6:35 AM 34.2 °F 27.5 °F 32.9 °F 95% 29.98 in 4.0 mi SSE 8.1 mph - N/A   Overcast
6:55 AM 34.3 °F 29.2 °F 32.9 °F 94% 29.98 in 3.0 mi SE 5.8 mph - N/A   Overcast
7:15 AM 34.3 °F 30.2 °F 32.9 °F 94% 29.98 in 2.5 mi SE 4.6 mph - N/A   Overcast
7:35 AM 34.2 °F 30.0 °F 32.9 °F 95% 29.98 in 2.0 mi SE 4.6 mph - N/A   Overcast
8:15 AM 34.0 °F 28.8 °F 32.9 °F 96% 29.99 in 1.8 mi ESE 5.8 mph - 0.01 in   Overcast
8:35 AM 34.2 °F 29.0 °F 33.1 °F 96% 29.99 in 1.5 mi SE 5.8 mph - 0.01 in   Overcast
8:55 AM 34.3 °F 30.2 °F 33.3 °F 96% 29.99 in 1.2 mi SE 4.6 mph - 0.02 in   Overcast
9:15 AM 34.3 °F 31.4 °F 33.3 °F 96% 29.99 in 1.5 mi ESE 3.5 mph - 0.01 in   Overcast
9:35 AM 34.5 °F 31.6 °F 33.3 °F 95% 29.99 in 1.2 mi ESE 3.5 mph - 0.02 in   Overcast
9:55 AM 34.5 °F 31.6 °F 33.6 °F 97% 29.98 in 1.2 mi East 3.5 mph - 0.03 in   Overcast
10:15 AM 34.3 °F 31.4 °F 33.4 °F 97% 29.98 in 1.0 mi East 3.5 mph - 0.01 in   Overcast
10:35 AM 34.7 °F - 33.8 °F 97% 29.98 in 0.8 mi Calm Calm - 0.02 in   Overcast
10:55 AM 34.3 °F 31.4 °F 33.4 °F 97% 29.98 in 0.8 mi ENE 3.5 mph - 0.03 in   Overcast
11:15 AM 34.7 °F - 33.8 °F 97% 29.98 in 0.8 mi Calm Calm - 0.01 in   Overcast
11:35 AM 34.3 °F 31.4 °F 33.4 °F 97% 29.97 in 0.5 mi NE 3.5 mph - 0.02 in   Overcast
11:55 AM 34.5 °F 30.4 °F 33.6 °F 97% 29.96 in 0.8 mi NE 4.6 mph - 0.03 in   Overcast
12:15 PM 34.5 °F 30.4 °F 33.6 °F 97% 29.95 in 0.8 mi NE 4.6 mph - 0.02 in   Overcast
12:35 PM 34.7 °F 30.6 °F 33.8 °F 97% 29.94 in 1.0 mi NE 4.6 mph - 0.03 in   Overcast
12:55 PM 34.7 °F 28.8 °F 33.8 °F 97% 29.93 in 0.8 mi ENE 6.9 mph - 0.04 in   Overcast
1:15 PM 34.7 °F 29.6 °F 33.8 °F 97% 29.93 in 0.8 mi ENE 5.8 mph - N/A   Overcast
1:35 PM 34.5 °F 29.4 °F 33.6 °F 97% 29.92 in 0.8 mi NE 5.8 mph - 0.02 in   Overcast
1:55 PM 34.3 °F 27.0 °F 33.4 °F 97% 29.92 in 1.2 mi NE 9.2 mph - 0.02 in   Overcast
2:15 PM 34.3 °F 26.5 °F 33.3 °F 96% 29.91 in 1.2 mi NE 10.4 mph - N/A   Overcast
2:35 PM 34.3 °F 27.0 °F 33.3 °F 96% 29.91 in 1.5 mi NE 9.2 mph - N/A   Overcast
2:55 PM 34.2 °F 26.8 °F 33.1 °F 96% 29.91 in 1.2 mi NE 9.2 mph - N/A   Overcast
3:15 PM 34.2 °F 27.5 °F 33.1 °F 96% 29.91 in 1.0 mi NNE 8.1 mph - N/A   Overcast
3:35 PM 34.0 °F 25.5 °F 32.9 °F 96% 29.91 in 1.0 mi NNE 11.5 mph - N/A   Overcast
3:55 PM 33.4 °F 24.8 °F 32.4 °F 96% 29.91 in 0.5 mi NNE 11.5 mph - N/A   Overcast
4:15 PM 32.9 °F 25.3 °F 32.0 °F 96% 29.91 in 0.5 mi North 9.2 mph - N/A   Overcast
4:35 PM 32.4 °F 25.3 °F 31.8 °F 98% 29.92 in 1.0 mi North 8.1 mph - N/A   Overcast
4:55 PM 32.0 °F 24.2 °F 30.6 °F 94% 29.93 in 0.5 mi North 9.2 mph - N/A   Overcast
5:15 PM 31.1 °F 23.1 °F 29.8 °F 95% 29.93 in 0.8 mi North 9.2 mph - N/A   Overcast
5:35 PM 30.6 °F 23.1 °F 29.3 °F 95% 29.94 in 1.2 mi North 8.1 mph - N/A   Overcast
5:55 PM 30.2 °F 21.3 °F 29.1 °F 96% 29.95 in 2.5 mi North 10.4 mph - N/A   Overcast
6:15 PM 30.2 °F 20.8 °F 28.9 °F 95% 29.95 in 2.0 mi North 11.5 mph - N/A   Overcast
6:35 PM 30.2 °F 20.2 °F 28.9 °F 95% 29.96 in 2.5 mi North 12.7 mph - N/A   Overcast
6:55 PM 29.8 °F 20.3 °F 28.4 °F 94% 29.97 in 2.0 mi North 11.5 mph - N/A   Overcast
7:15 PM 29.3 °F 18.6 °F 28.0 °F 95% 29.98 in 2.0 mi North 13.8 mph 19.6 mph N/A   Overcast
7:35 PM 29.1 °F 17.9 °F 27.5 °F 94% 29.98 in 1.8 mi North 15.0 mph - N/A   Overcast
7:55 PM 28.9 °F 18.6 °F 27.5 °F 94% 30.00 in 1.5 mi North 12.7 mph - N/A   Overcast
8:15 PM 28.8 °F 17.0 °F 27.1 °F 94% 30.00 in 1.8 mi North 16.1 mph - N/A   Overcast
8:35 PM 28.4 °F 16.6 °F 26.6 °F 93% 30.01 in 1.8 mi North 16.1 mph 21.9 mph N/A   Overcast
8:55 PM 28.4 °F 17.5 °F 26.6 °F 93% 30.03 in 1.8 mi North 13.8 mph 18.4 mph N/A   Overcast
9:15 PM 27.9 °F 15.9 °F 26.1 °F 93% 30.03 in 1.8 mi North 16.1 mph - N/A   Overcast
9:35 PM 26.8 °F 13.3 °F 24.6 °F 92% 30.04 in 1.8 mi NNE 19.6 mph 26.5 mph N/A   Overcast
9:55 PM 26.1 °F 15.0 °F 23.7 °F 91% 30.05 in 4.0 mi North 12.7 mph - N/A   Overcast
10:15 PM 26.4 °F 16.6 °F 23.9 °F 90% 30.05 in 7.0 mi North 10.4 mph - N/A   Overcast
10:35 PM 25.7 °F 11.9 °F 22.6 °F 88% 30.06 in 3.0 mi North 19.6 mph 23.0 mph N/A   Overcast
10:55 PM 25.0 °F 10.9 °F 22.6 °F 91% 30.06 in 3.0 mi North 19.6 mph 24.2 mph N/A   Overcast
11:15 PM 24.6 °F 11.3 °F 21.2 °F 87% 30.07 in 7.0 mi North 17.3 mph - N/A   Overcast
11:35 PM 24.6 °F 11.7 °F 20.3 °F 84% 30.08 in 10.0 mi North 16.1 mph 21.9 mph N/A   Overcast
11:55 PM 24.4 °F 10.2 °F 19.9 °F 83% 30.08 in 10.0 mi NNE 19.6 mph 24.2 mph N/A   Overcast